Tracking 23758 objects as of 28-Oct-2021
HD Live streaming from Space Station
objects crossing your sky now

FLOCK 3S 3

Track FLOCK 3S 3 now!
10-day predictions
FLOCK 3S 3 is classified as:


NORAD ID: 43788
Int'l Code: 2018-099AG
Perigee: 576.5 km
Apogee: 595.9 km
Inclination: 97.7 °
Period: 96.3 minutes
Semi major axis: 6957 km
RCS: Unknown
Launch date: December 3, 2018
Source: United States (US)
Launch site: AIR FORCE WESTERN TEST RANGE (AFWTR)
aabbcc
Your satellite tracking list
Your tracking list is empty




NASA's NSSDC Master Catalog

Two Line Element Set (TLE):
1 43788U 18099AG  21300.75632223  .00000848  00000-0  80480-4 0  9997
2 43788  97.6567   8.8419 0013923 333.7018  26.3495 14.96058342158268
Source of the keplerian elements: AFSPC